TIME,DELAY(SENSOR),PRES,T(CTD),SAL,OXYGEN,RAWTEMP,T(OPTODE),TCPHASE,FLUOR,BETA(BETA700),BETA(BETA412),BETA(BETA440),CDOM,C(CSC),ED(ED412.40),ED(ED444.00),ED(ED489.70),ED(ED554.30),LU(LU411.80),LU(LU443.40),LU(LU489.60),LU(LU554.10),COMP,TILTX,TILTX(TILTY),CHECK
1346016541,5806,497.2900085449219000,6.1343998908996580,34.1777000427246100,61.4809494018554700,614.5200805664062000,6.1141991615295410,51.4078903198242200,52,104,85,80,80,15290,2147749184,2147423451,2148003318,2147874953,2147633371,2147079552,2148247954,2147201892,1507,4,13,47933
1346016664,5808,486.3800048828125000,6.2923002243041990,34.1699981689453100,64.7197036743164000,609.1032714843750000,6.2898011207580570,50.9145393371582000,51,104,88,81,80,15292,2147751533,2147420379,2148005403,2147874011,2147634331,2147078802,2148253028,2147202980,1769,4,13,52281
1346016796,5807,474.9100036621094000,6.5037999153137210,34.1609992980957000,71.4201507568359400,602.9127807617188000,6.4901309013366700,49.9851913452148440,52,108,89,79,80,15288,2147750692,2147420790,2148003894,2147873334,2147631250,2147076397,2148242660,2147201737,2410,4,13,37196
1346016920,5808,464.5199890136719000,6.6310000419616700,34.1450004577636700,77.3013534545898400,599.1621093750000000,6.6113300323486330,49.2172584533691400,52,104,87,79,80,15292,2147750445,2147424585,2148005275,2147873554,2147632612,2147078025,2148243867,2147203538,2703,4,13,32448
1346017063,5810,453.3500061035156000,6.6791000366210940,34.1328010559082000,84.1365127563476600,598.1052856445312000,6.6454539299011230,48.4005584716796900,51,105,89,80,78,15292,2147750016,2147422802,2148005522,2147873481,2147629814,2147081673,2148243337,2147201728,3140,4,13,136
1346017239,5806,441.2500000000000000,6.9114999771118160,34.1255989074707000,90.7297668457031200,591.0087890625000000,6.8743319511413570,47.5549507141113300,52,105,86,79,78,15288,2147749869,2147421888,2148004516,2147874285,2147630244,2147080274,2148239314,2147201993,3343,4,13,29562
1346017375,5806,430.5799865722656000,6.9948000907897950,34.1166992187500000,96.8321228027343800,587.6724243164062000,6.9817748069763180,46.8373908996582000,50,107,88,80,79,15289,2147747931,2147421449,2148002514,2147876781,2147630802,2147086345,2148243318,2147204461,2450,3,13,25045
1346017540,5807,417.4800109863281000,7.2084999084472660,34.0859985351562500,107.8112030029296900,581.0740966796875000,7.1939620971679690,45.5923309326171900,50,103,89,81,78,15292,2147746761,2147422016,2148005184,2147875254,2147626313,2147090093,2148239981,2147203090,1087,4,12,36949
1346017665,5807,405.3699951171875000,7.5974001884460450,34.0943984985351560,120.4272003173828100,568.9906005859375000,7.5815258026123050,44.1606101989746100,51,105,88,82,77,15290,2147745746,2147424877,2148004900,2147874550,2147626377,2147088329,2148240493,2147204516,720,4,13,64262
1346017775,5808,393.5700073242187500,8.0844001770019530,34.1072998046875000,127.4545974731445300,553.5645751953125000,8.0744476318359380,43.2446403503418000,50,105,91,79,78,15291,2147747200,2147421037,2148000237,2147872530,2147626194,2147090450,2148237184,2147203684,1190,4,13,207
1346017876,5809,382.3299865722656000,8.5454998016357420,34.1142997741699200,137.6105041503906200,539.1284790039062000,8.5339412689208980,42.0927314758300800,50,108,87,79,75,15283,2147746368,2147422116,2148006025,2147872320,2147625042,2147094546,2148239405,2147203894,713,4,12,44416
1346017975,5806,370.9899902343750000,8.6528997421264650,34.1236991882324200,144.2967987060547000,535.9592285156250000,8.6345920562744140,41.4679908752441400,50,107,90,81,76,15284,2147748196,2147424256,2148003611,2147869686,2147623232,2147096850,2148237897,2147202194,2738,4,13,22685
1346018074,5810,359.1799926757812500,8.6766996383667000,34.1255989074707000,145.6253967285156200,534.8442993164062000,8.6699829101562500,41.3379898071289060,50,108,89,81,75,15285,2147744685,2147420973,2148005037,2147872036,2147623131,2147097453,2148230336,2147197723,2457,4,13,44036
1346018173,5806,347.8900146484375000,9.1688003540039060,34.1147994995117200,155.8999023437500000,519.7260742187500000,9.1489086151123050,40.2452392578125000,50,106,88,79,73,15286,2147742820,2147422290,2148005129,2147869056,2147619913,2147098404,2148233974,2147204480,191,5,13,19917
1346018291,5809,337.2200012207031000,9.4399995803833000,34.1138000488281250,176.7317047119140600,510.4942016601562500,9.4405174255371100,38.5366096496582000,50,109,90,81,73,15287,2147739620,2147424182,2148004544,2147873554,2147620288,2147105088,2148233069,2147207323,1323,4,14,53074
1346018423,5806,326.8599853515625000,9.6682996749877930,34.1230010986328100,186.9830932617187500,502.2002868652344000,9.7019739151000980,37.6949615478515600,49,106,88,80,72,15290,2147737645,2147423488,2148007725,2147873042,2147617718,2147101476,2148229568,2147203245,1556,4,13,47463
1346018590,5807,316.3900146484375000,10.0827999114990230,34.1325988769531250,195.8957977294922000,490.8799133300781000,10.0580596923828120,36.9260406494140600,49,111,86,81,71,15289,2147737773,2147427337,2148006948,2147872950,2147616009,2147108845,2148225426,2147205467,661,4,14,37894
1346018821,5806,303.4200134277344000,10.5910997390747070,34.1548995971679700,196.1833953857422000,474.3969116210937500,10.5750102996826170,36.6315994262695300,50,108,87,80,71,15282,2147733156,2147425490,2148013403,2147874834,2147610852,2147109696,2148231341,2147208018,1301,4,14,52970
1346018962,5801,292.6300048828125000,11.1812000274658200,34.1806983947753900,197.5742034912109400,455.1664123535156000,11.1759700775146480,36.2269515991210940,49,110,88,81,72,15283,2147738413,2147426770,2148022336,2147873545,2147610624,2147117641,2148229668,2147208146,3585,4,14,37549
1346019127,5809,279.1000061035156000,11.8423004150390620,34.1964988708496100,199.6058959960937500,434.1882019042969000,11.8290996551513670,35.7606697082519500,48,106,88,80,69,15282,2147733376,2147430546,2148033334,2147873133,2147607954,2147123529,2148231369,2147209581,3259,4,13,11237
1346019239,5812,268.5799865722656000,12.1990003585815430,34.2179985046386700,202.6510925292968800,422.1258850097656000,12.2035799026489260,35.3828697204589840,49,106,87,81,69,15283,2147731867,2147434358,2148052626,2147870281,2147602797,2147126317,2148234651,2147205814,2395,4,13,56645
1346019360,5810,257.5299987792969000,12.9181003570556640,34.2617988586425800,204.3049011230468800,396.2844848632812500,13.0034704208374020,34.8764190673828100,49,108,90,81,69,15281,2147729627,2147440640,2148073682,2147871762,2147602825,2147138496,2148245805,2147210852,3382,4,13,10635
1346019494,5811,246.5000000000000000,13.8056001663208000,34.3384017944335940,203.7855072021484400,368.7831115722656000,13.8516197204589840,34.4825897216796900,49,111,88,81,69,15275,2147732516,2147448822,2148101229,2147870893,2147600064,2147145261,2148258139,2147211684,1753,3,14,56446
1346019626,5808,235.7700042724609400,14.2762002944946290,34.3782005310058600,206.0435028076172000,353.8005981445312500,14.3125000000000000,34.1219787597656250,48,112,89,81,68,15279,2147727917,2147451584,2148091355,2147872804,2147593417,2147150144,2148243456,2147212452,1177,3,13,59915
1346019761,5809,223.9600067138672000,14.8357000350952150,34.3815002441406250,211.8780975341797000,333.9833068847656000,14.9210195541381840,33.4910087585449200,50,105,90,80,67,15274,2147730075,2147495204,2148220854,2147874761,2147592109,2147178377,2148307977,2147217618,1753,3,15,52653
1346019882,5809,212.7799987792968800,15.5221996307373050,34.4539985656738300,213.4297943115234400,314.4826049804687500,15.5187902450561520,33.1174507141113300,50,106,87,80,68,15279,2147734052,2147528923,2148309421,2147873206,2147594788,2147204169,2148346258,2147222756,1688,3,14,36124
1346019992,5807,202.5200042724609400,15.9218997955322270,34.5060005187988300,214.4356994628906200,302.1648864746094000,15.8959302902221680,32.8826293945312500,49,108,87,82,67,15276,2147743570,2147586432,2148460717,2147873206,2147595657,2147239972,2148416566,2147221019,949,4,14,28286
1346020067,5808,196.6600036621093800,16.7455997467041000,34.6132011413574200,213.8605041503906200,276.5050048828125000,16.6807308197021500,32.5458297729492200,50,108,86,80,66,15271,2147746121,2147611785,2148505472,2147873755,2147591817,2147261046,2148438208,2147228845,1665,3,15,51511
1346020122,5807,193.6399993896484400,16.9220008850097660,34.6465988159179700,215.8206024169922000,268.0712890625000000,16.9384803771972660,32.3189888000488300,50,106,89,82,66,15270,2147745563,2147611465,2148494317,2147873206,2147593691,2147257517,2148430665,2147228306,1678,3,14,35315
1346020210,5806,190.1600036621093800,17.4335002899169920,34.7097015380859400,217.8809051513672000,253.0514984130859400,17.3973407745361330,31.9969596862792970,52,108,87,80,66,15267,2147755410,2147670930,2148647286,2147869577,2147597988,2147300507,2148502628,2147234770,1123,3,14,48002
1346020356,5810,185.9900054931640600,18.0172996520996100,34.7775993347168000,217.2994995117187500,232.8925933837890600,18.0130004882812500,31.7470798492431640,54,106,88,81,66,15266,2147772827,2147718153,2148738459,2147870948,2147597714,2147329984,2148547894,2147236178,2939,3,15,59706
1346020499,5809,182.1000061035156200,18.7336997985839840,34.8762016296386700,215.5818023681640600,212.6513061523437500,18.6311492919921880,31.5599708557128900,59,109,91,81,65,15255,2147788068,2147774500,2148848832,2147874166,2147602413,2147366866,2148593709,2147242258,2373,3,14,48972
1346020631,5805,178.0099945068359400,19.1210994720459000,34.9305992126464840,217.0523071289062500,197.1750946044922000,19.1038799285888670,31.2704906463623050,64,113,89,81,65,15252,2147807241,2147845696,2148999168,2147875419,2147608146,2147415021,2148660818,2147246756,795,3,15,19108
1346020739,5806,173.6499938964843800,19.4582996368408200,34.9712982177734400,218.7164001464843800,186.5979003906250000,19.4270801544189450,31.0400791168212900,66,113,93,83,64,15246,2147842541,2147944841,2149191524,2147876489,2147620352,2147467885,2148750546,2147255085,1198,3,15,361
1346020827,5807,169.6999969482422000,19.6019992828369140,34.9870986938476560,218.5157012939453000,181.2243041992187500,19.5913200378417970,30.9781494140625000,72,115,87,81,64,15244,2147878061,2148038720,2149373394,2147876699,2147633152,2147523821,2148828324,2147260443,1404,2,15,21686
1346020926,5806,165.8200073242187500,19.6515998840332030,34.9926986694335940,218.2447967529297000,179.3795928955078000,19.6477108001709000,30.9673805236816400,72,113,91,82,63,15234,2147926336,2148148324,2149578825,2147880128,2147653403,2147585709,2148924845,2147266176,1068,3,15,58684
1346021039,5807,161.7700042724609400,19.7688007354736330,35.0084991455078100,217.9317016601562500,175.1497955322265600,19.7770309448242200,30.9269008636474600,73,116,89,83,64,15235,2147993691,2148293997,2149833389,2147878418,2147681508,2147662710,2149029659,2147273526,1377,2,16,57985
1346021149,5807,158.0800018310547000,19.9361000061035160,35.0351982116699200,219.7958984375000000,170.4550018310547000,19.9205894470214840,30.7670402526855470,75,117,90,83,63,15234,2148069531,2148440722,2150088137,2147884397,2147714331,2147746112,2149149394,2147285586,2094,3,15,20584
1346021259,5810,153.9900054931640600,20.1145000457763670,35.0621986389160160,219.7678070068359400,163.4998016357422000,20.1333408355712900,30.6758308410644530,83,116,88,81,65,15229,2148171062,2148640502,2150443099,2147882980,2147756470,2147846610,2149313097,2147295186,2548,2,15,14685
1346021359,5807,148.9600067138672000,20.2875003814697270,35.0878982543945300,222.1089935302734400,158.5639038085937500,20.2843704223632800,30.4904499053955080,79,119,91,82,64,15221,2148326409,2148930422,2150963254,2147892809,2147826605,2148015990,2149550454,2147313170,2428,2,15,51203
1346021425,5809,144.7899932861328000,20.5177001953125000,35.1200981140136700,223.0834045410156200,152.4134063720703000,20.4726200103759770,30.3595600128173830,84,122,93,82,63,15212,2148489453,2149221138,2151462153,2147896585,2147898212,2148164480,2149777024,2147330368,3141,2,15,44253
1346021480,5809,141.5299987792968800,20.6126995086669920,35.1361007690429700,224.3860931396484400,147.3890075683593800,20.6264705657959000,30.2279090881347660,89,121,90,83,63,15214,2148644187,2149483574,2151913490,2147906496,2147964114,2148310619,2149981513,2147343369,3562,2,16,41514
1346021557,5809,137.3200073242187500,20.8034000396728500,35.1549987792968750,225.4028015136718800,141.8970947265625000,20.7946891784667970,30.1051292419433600,98,124,91,83,62,15206,2148897170,2149913069,2152642093,2147915145,2148068233,2148502528,2150236845,2147365010,2905,3,16,5474
1346021637,5808,133.4400024414062500,21.0856990814209000,35.1915016174316400,227.2200012207031200,133.1499023437500000,21.0627593994140620,29.9010391235351560,107,127,90,84,63,15194,2149176064,2150364992,2153381019,2147925622,2148190198,2148737270,2150583588,2147390144,3105,2,16,40023
1346021725,5810,129.6499938964843800,21.2367000579834000,35.2159004211425800,229.5491943359375000,127.7165985107421900,21.2293605804443360,29.7167396545410160,122,134,92,83,62,15173,2149570651,2151027017,2154483830,2147947446,2148345563,2149014144,2150973001,2147426404,2618,2,16,25659
1346021813,5804,125.8899993896484400,21.3204994201660160,35.2247009277343750,231.5410003662109400,124.9712982177734400,21.3135795593261720,29.5852794647216800,127,129,91,83,61,15159,2149635638,2150987968,2154203181,2147947401,2148377408,2148960109,2150847140,2147417938,2434,2,16,15310
1346021890,5806,122.3300018310546900,21.3717002868652340,35.2333984375000000,233.3943939208984400,123.2080993652343800,21.3676700592041000,29.4740009307861330,134,135,92,84,61,15153,2150453494,2152385718,2156516114,2147989010,2148711689,2149568338,2151735049,2147489764,2648,2,16,48966
1346021969,5806,118.6999969482421900,21.7091999053955080,35.2840995788574200,237.0773010253906200,112.9570007324218800,21.6823596954345700,29.1694393157959000,139,137,93,85,62,15137,2151156251,2153500589,2158217874,2148024941,2148997613,2150038674,2152384128,2147547273,3434,2,16,37430
1346022068,5808,114.6800003051757800,21.9650001525878900,35.2751007080078100,240.9443969726562500,104.4423980712890600,21.9439697265625000,28.8832607269287100,154,132,91,85,61,15118,2152065069,2154940452,2160250642,2148075529,2149370587,2150631798,2153139949,2147614418,2363,2,15,12494
1346022178,5808,111.2200012207031200,22.0076999664306640,35.2753982543945300,243.4290008544922000,102.7698974609375000,21.9953899383544920,28.7499294281005860,158,130,92,84,61,15109,2152899520,2156217179,2161953965,2148123803,2149709659,2151127497,2153760576,2147680210,1453,2,16,8970
1346022301,5808,106.6999969482421900,22.0216007232666000,35.2747001647949200,244.8412933349609400,102.0035018920898400,22.0189495086669920,28.6770191192626950,152,131,93,85,60,15093,2154882788,2159169462,2165697252,2148230528,2150498102,2152290688,2155167908,2147818084,1872,3,15,45366
1346022378,5810,102.7099990844726600,22.1116008758544920,35.2695999145507800,245.0767059326172000,99.2065429687500000,22.1049594879150400,28.6312294006347660,144,131,91,85,61,15088,2156619949,2161576603,2168373421,2148327030,2151201746,2153218468,2156192475,2147930752,2314,2,15,35768
1346022466,5808,98.6100006103515600,22.2169990539550780,35.2694015502929700,245.8493041992187500,95.6564788818359400,22.2141704559326170,28.5523395538330080,120,129,93,85,62,15112,2159492516,2165592246,2173132132,2148506276,2152479305,2155049645,2158247588,2148136292,2412,2,15,36723
1346022521,5815,96.3300018310546900,22.2847003936767580,35.2699012756347660,246.3675994873047000,93.6491012573242200,22.2759399414062500,28.5040607452392580,112,130,94,84,62,15096,2161378669,2168173494,2176073088,2148627776,2153375936,2156299227,2159550354,2148271451,1785,2,15,64537
1346022578,5808,94.0800018310546900,22.3015003204345700,35.2697982788085940,246.7798004150390600,92.6802673339843800,22.3057594299316400,28.4736309051513670,114,126,91,85,60,15111,2163519168,2171001033,2179262116,2148754203,2154377984,2157714340,2161034240,2148417526,1005,2,16,1882
1346022633,5810,91.9199981689453100,22.3405990600585940,35.2667007446289060,246.8265991210937500,91.6478271484375000,22.3375301361084000,28.4586906433105470,109,127,91,84,61,15122,2165623515,2173665801,2182117385,2148902939,2155392539,2159101723,2162452891,2148568310,547,2,15,39869
1346022688,5810,89.6200027465820300,22.3862991333007800,35.2638015747070300,246.8764038085937500,90.1110534667968800,22.3848400115966800,28.4370708465576170,106,125,93,86,61,15121,2167888749,2176529051,2185155529,2149080914,2156504027,2160598838,2163943533,2148727451,264,3,16,3056
1346022743,5809,87.3899993896484400,22.4435005187988280,35.2602005004882800,246.7026977539062500,88.3354797363281200,22.4395198822021500,28.4226303100585940,99,126,92,86,61,15123,2170313435,2179483008,2188189970,2149271744,2157656932,2162107776,2165395748,2148889307,102,3,15,51333
1346022798,5807,85.2799987792968800,22.5317993164062500,35.2578010559082000,246.6589965820312500,86.2519836425781200,22.5036792755126950,28.3981304168701170,90,124,91,84,58,15130,2172709357,2182343488,2191101897,2149461138,2159017673,2163926262,2167166491,2149080713,315,2,15,37348
1346022853,5809,83.2900009155273400,22.6023998260498050,35.2537002563476560,246.5769958496093800,84.1971969604492200,22.5669803619384770,28.3761100769042970,87,126,90,85,61,15125,2175631533,2185904932,2194956534,2149764800,2160592731,2165988196,2169121115,2149301019,612,2,15,19206
1346022931,5808,80.1900024414062500,22.8792991638183600,35.2394981384277340,246.2539062500000000,75.3760070800781200,22.8388996124267580,28.2797908782959000,80,125,91,84,60,15136,2176870518,2186422116,2194144320,2149937252,2161471268,2166711030,2169160036,2149361481,1177,2,15,45811
1346022986,5810,77.9000015258789000,23.0065002441406250,35.2323989868164060,246.4423065185547000,71.3992233276367200,22.9615898132324220,28.2218608856201170,80,126,93,85,62,15131,2185209435,2197127350,2206251611,2150680064,2165923721,2172682331,2175171702,2149996306,1482,3,15,18672
1346023041,5809,76.0100021362304700,23.0503997802734380,35.2316017150878900,246.6571960449218800,69.4743728637695300,23.0209999084472660,28.1886291503906250,77,125,92,85,59,15120,2188135030,2200193426,2208921993,2150937554,2167732388,2174763337,2176840786,2150198528,1998,3,16,15996
1346023107,5805,74.2200012207031200,23.2131996154785160,35.2196998596191400,246.5222015380859400,65.0368194580078100,23.1580104827880860,28.1391601562500000,76,125,95,85,60,15122,2192189723,2204533056,2213022226,2151385042,2170033042,2177453705,2179090724,2150475465,2428,3,16,36923
1346023329,5810,72.5699996948242200,23.6382007598876950,35.2010002136230500,245.5648956298828000,49.7694206237793000,23.6300697326660160,27.9915294647216800,72,126,95,86,62,15119,2198417307,2210402541,2218068928,2151793499,2174224786,2182248356,2182756242,2150849508,261,2,15,38782
1346023483,5808,70.5400009155273400,23.7045001983642580,35.2004013061523440,245.4837951660156200,47.3234214782714840,23.7057895660400400,27.9646797180175780,70,128,93,86,57,15124,2206105398,2218040795,2224618331,2152464950,2179467273,2187989275,2187036736,2151328530,63,2,15,35384
1346023571,5807,67.9700012207031200,23.8283996582031250,35.1944999694824200,245.0859985351562500,43.6062698364257800,23.8209209442138670,27.9361190795898440,67,127,93,86,56,15121,2214947401,2226536512,2231829138,2153449883,2185389385,2194221248,2191708406,2151913517,2992,2,15,34581
1346023626,5803,65.6200027465820300,23.9673995971679700,35.1875991821289060,244.1289062500000000,38.7718009948730500,23.9707603454589840,27.9183406829834000,68,126,96,85,59,15123,2221339483,2232486793,2236471058,2154252333,2190916416,2200044452,2196137609,2152486381,1991,1,16,40159
1346023681,5808,63.7299995422363300,24.1532001495361330,35.1811981201171900,242.9633026123047000,32.3137016296386700,24.1711006164550780,27.8898696899414060,66,128,92,84,61,15126,2228949339,2239935734,2243330898,2155180260,2195637056,2205084388,2199971108,2153019510,1706,2,16,7194
1346023736,5808,62.1899986267089840,24.3379993438720700,35.1829986572265600,242.9765014648437500,28.8662204742431640,24.2781391143798830,27.8468494415283200,67,126,95,86,58,15120,2234017188,2244955593,2248013705,2156003136,2199685403,2209192347,2203096877,2153448448,1886,3,16,51931
1346023835,5807,60.3899993896484400,24.4503002166748050,35.1855010986328100,243.1903076171875000,23.8827495574951170,24.4329605102539060,27.7758197784423830,65,125,92,85,61,15123,2241079058,2251718354,2254319350,2157044196,2204981787,2214462162,2207082660,2153965558,2640,2,16,29442
1346023924,5804,58.1500015258789060,24.6980991363525400,35.1861991882324200,242.9804992675781200,15.6469202041625980,24.6891307830810550,27.6838493347167970,64,125,92,84,59,15122,2250631360,2260164498,2261265636,2158522532,2213241856,2222030729,2212121828,2154703771,2606,1,16,1856
1346023990,5809,55.9599990844726560,24.7616004943847660,35.1875000000000000,242.8728942871093800,13.2898197174072270,24.7625102996826170,27.6595802307128900,62,122,94,84,57,15118,2263057042,2273351689,2274635136,2160752640,2222863817,2231386752,2218546130,2155741897,1862,2,17,41838
1346024045,5808,54.0299987792968750,24.9463996887207030,35.1957015991210940,242.0625000000000000,7.9795360565185550,24.9279403686523440,27.6300392150878900,62,123,92,86,59,15118,2269061412,2278886774,2279134180,2162041508,2229772836,2237953426,2223442340,2156486555,2341,2,16,19549
1346024111,5812,51.9599990844726560,25.1014003753662100,35.2018013000488300,241.4888000488281200,3.3034000396728516,25.0737590789794920,27.5979804992675780,59,121,93,84,58,15121,2274840987,2283461412,2283475437,2164245138,2237127524,2244855085,2228300781,2157330267,2705,2,16,48166
1346024177,5808,50.1300010681152340,25.1233005523681640,35.2047004699707000,241.2543029785156200,1.6706320047378540,25.1247005462646500,27.5882701873779300,59,122,96,84,60,15131,2279770742,2287492416,2286983378,2165503442,2244719872,2252304310,2233931264,2158164946,3065,1,16,10295
1346024256,5807,47.4900016784668000,25.1671009063720700,35.2102012634277340,240.9414062500000000,-0.0231116991490126,25.1775608062744140,27.5814208984375000,59,122,94,85,57,15122,2300243026,2309793170,2310018093,2172115821,2261225782,2267055104,2243725723,2160281810,2452,2,16,21200
1346024311,5804,44.8800010681152340,25.3479995727539060,35.2177009582519500,240.0769042968750000,-5.3266081809997560,25.3431892395019530,27.5546398162841800,57,123,93,85,54,15120,2300704448,2308325961,2307173760,2172642331,2270764708,2275069257,2248417389,2160966893,1675,2,16,58038
1346024366,5812,42.4900016784668000,25.5090007781982420,35.2229003906250000,239.2720947265625000,-9.7292394638061520,25.4808197021484380,27.5363693237304700,57,128,91,86,59,15107,2324364123,2334506358,2335355446,2181315328,2291194349,2294556672,2262606994,2163989686,1629,2,16,1577
1346024421,5809,40.4000015258789060,25.5515003204345700,35.2253990173339840,238.7109985351562500,-12.5206403732299800,25.5681400299072270,27.5270805358886720,57,124,93,83,58,15121,2325855561,2334559652,2333926564,2183786112,2303005952,2304353645,2268973001,2165255515,2088,2,16,54128
1346024476,5808,38.4599990844726560,25.6742000579834000,35.2258987426757800,238.2613067626953000,-15.7427101135253900,25.6690006256103500,27.5077705383300780,56,125,96,86,57,15109,2349679524,2360620242,2362363072,2192097014,2315697700,2315032210,2275899483,2166426011,2872,1,16,51284
1346024531,5805,36.8199996948242200,25.7493000030517580,35.2272987365722660,237.9031982421875000,-18.1325607299804700,25.7438392639160160,27.4944992065429700,58,125,93,87,58,15114,2344142144,2353271908,2353338898,2193046445,2329867355,2327895579,2284697115,2168141705,2545,2,16,35270
1346024608,5809,34.2200012207031250,25.8213996887207030,35.2302017211914060,237.4315948486328000,-20.7768306732177730,25.8267002105712900,27.4831504821777340,56,126,96,85,55,15110,2365732059,2376286628,2377774802,2204423634,2354260342,2348723117,2298784987,2171890477,2711,1,16,416